• In Moldova, Republic
  • List of Countries
  • For 7 days
  • Water Temperature
  • Satellite Maps
  • Weather Map
  • Weather Widgets
  • user-avatar
    Login

    Hourly Weather Berestovka

    Today, 22 April, Sunday

    Time Temperature Precipitation Wind Pressure Humidity
    00:00 +8°C° 0 mm 5 mps 743 mmHg 53%
    01:00 +7°C° 0 mm 5 mps 743 mmHg 55%
    02:00 +7°C° 0 mm 5 mps 744 mmHg 57%
    03:00 +6°C° 0 mm 5 mps 744 mmHg 59%
    04:00 +6°C° 0 mm 5 mps 744 mmHg 61%
    05:00 +5°C° 0 mm 5 mps 744 mmHg 63%
    06:00 +7°C° 0 mm 5 mps 744 mmHg 60%
    07:00 +8°C° 0 mm 6 mps 744 mmHg 58%
    08:00 +9°C° 0 mm 7 mps 744 mmHg 56%
    09:00 +10°C° 0 mm 7 mps 744 mmHg 51%
    10:00 +11°C° 0 mm 8 mps 744 mmHg 47%
    11:00 +12°C° 0 mm 8 mps 744 mmHg 43%
    12:00 +12°C° 0 mm 8 mps 744 mmHg 43%
    13:00 +12°C° 0 mm 8 mps 744 mmHg 43%
    14:00 +12°C° 0 mm 7 mps 744 mmHg 43%
    15:00 +12°C° 0 mm 7 mps 744 mmHg 43%
    16:00 +13°C° 0 mm 6 mps 744 mmHg 44%
    17:00 +13°C° 0 mm 6 mps 744 mmHg 45%
    18:00 +12°C° 0 mm 5 mps 744 mmHg 50%
    19:00 +10°C° 0 mm 4 mps 745 mmHg 55%
    20:00 +9°C° 0 mm 3 mps 745 mmHg 60%
    21:00 +8°C° 0 mm 3 mps 745 mmHg 63%
    22:00 +8°C° 0 mm 2 mps 745 mmHg 66%
    23:00 +7°C° 0 mm 2 mps 746 mmHg 69%

    Tomorrow, 23 April, Monday

    Time Temperature Precipitation Wind Pressure Humidity
    00:00 +7°C° 0 mm 2 mps 746 mmHg 73%
    01:00 +6°C° 0 mm 2 mps 746 mmHg 77%
    02:00 +5°C° 0 mm 2 mps 747 mmHg 80%
    03:00 +5°C° 0 mm 2 mps 747 mmHg 83%
    04:00 +4°C° 0 mm 2 mps 747 mmHg 85%
    05:00 +4°C° 0 mm 2 mps 748 mmHg 88%
    06:00 +5°C° 0 mm 2 mps 748 mmHg 78%
    07:00 +5°C° 0 mm 3 mps 748 mmHg 69%
    08:00 +8°C° 0 mm 3 mps 749 mmHg 59%
    09:00 +9°C° 0 mm 3 mps 749 mmHg 54%
    10:00 +10°C° 0 mm 3 mps 749 mmHg 49%
    11:00 +11°C° 0 mm 3 mps 749 mmHg 44%
    12:00 +11°C° 0 mm 3 mps 749 mmHg 42%
    13:00 +13°C° 0 mm 2 mps 749 mmHg 40%
    14:00 +13°C° 0 mm 2 mps 749 mmHg 38%
    15:00 +13°C° 0 mm 2 mps 749 mmHg 38%
    16:00 +13°C° 0 mm 2 mps 748 mmHg 39%
    17:00 +13°C° 0 mm 2 mps 748 mmHg 39%
    18:00 +12°C° 0 mm 2 mps 748 mmHg 44%
    19:00 +9°C° 0 mm 2 mps 748 mmHg 48%
    20:00 +7°C° 0 mm 2 mps 748 mmHg 53%
    21:00 +7°C° 0 mm 2 mps 748 mmHg 53%
    22:00 +6°C° 0 mm 2 mps 748 mmHg 54%
    23:00 +4°C° 0 mm 3 mps 748 mmHg 54%

    Day after tomorrow, 24 April, Tuesday

    Time Temperature Precipitation Wind Pressure Humidity
    00:00 +4°C° 0 mm 3 mps 748 mmHg 55%
    01:00 +4°C° 0 mm 3 mps 748 mmHg 55%
    02:00 +4°C° 0 mm 3 mps 748 mmHg 56%
    03:00 +4°C° 0 mm 3 mps 748 mmHg 57%
    04:00 +4°C° 0 mm 3 mps 748 mmHg 57%
    05:00 +4°C° 0 mm 3 mps 748 mmHg 58%
    06:00 +5°C° 0.1 mm 4 mps 747 mmHg 62%
    07:00 +5°C° 0.1 mm 4 mps 747 mmHg 66%
    08:00 +6°C° 0.1 mm 4 mps 747 mmHg 70%
    09:00 +8°C° 0 mm 4 mps 746 mmHg 69%
    10:00 +10°C° 0 mm 4 mps 746 mmHg 68%
    11:00 +11°C° 0 mm 4 mps 746 mmHg 67%
    12:00 +12°C° 0 mm 4 mps 746 mmHg 66%
    13:00 +13°C° 0 mm 4 mps 746 mmHg 65%
    14:00 +14°C° 0 mm 4 mps 745 mmHg 64%
    15:00 +13°C° 0.3 mm 4 mps 745 mmHg 70%
    16:00 +13°C° 0.3 mm 3 mps 745 mmHg 76%
    17:00 +12°C° 0.3 mm 3 mps 745 mmHg 82%
    18:00 +11°C° 0.1 mm 3 mps 745 mmHg 84%
    19:00 +11°C° 0.1 mm 3 mps 745 mmHg 87%
    20:00 +10°C° 0.1 mm 2 mps 745 mmHg 89%
    21:00 +9°C° 0 mm 3 mps 745 mmHg 89%
    22:00 +9°C° 0 mm 3 mps 745 mmHg 88%
    23:00 +8°C° 0 mm 3 mps 745 mmHg 87%

    25 April, Wednesday

    Time Temperature Precipitation Wind Pressure Humidity
    00:00 +8°C° 0 mm 3 mps 746 mmHg 88%
    01:00 +7°C° 0 mm 3 mps 746 mmHg 88%
    02:00 +7°C° 0 mm 2 mps 746 mmHg 88%
    03:00 +7°C° 0 mm 3 mps 746 mmHg 89%
    04:00 +7°C° 0 mm 3 mps 745 mmHg 90%
    05:00 +7°C° 0 mm 3 mps 745 mmHg 91%
    06:00 +7°C° 0 mm 4 mps 745 mmHg 86%
    07:00 +9°C° 0 mm 5 mps 745 mmHg 82%
    08:00 +10°C° 0 mm 6 mps 745 mmHg 77%
    09:00 +11°C° 0.1 mm 6 mps 745 mmHg 75%
    10:00 +11°C° 0.1 mm 6 mps 745 mmHg 72%
    11:00 +13°C° 0.1 mm 6 mps 745 mmHg 70%
    12:00 +14°C° 0 mm 6 mps 745 mmHg 63%
    13:00 +15°C° 0 mm 7 mps 745 mmHg 56%
    14:00 +16°C° 0 mm 7 mps 745 mmHg 49%
    15:00 +16°C° 0 mm 6 mps 745 mmHg 49%
    16:00 +16°C° 0 mm 5 mps 745 mmHg 49%
    17:00 +16°C° 0 mm 5 mps 745 mmHg 49%
    18:00 +14°C° 0 mm 4 mps 746 mmHg 55%
    19:00 +12°C° 0 mm 3 mps 746 mmHg 61%
    20:00 +12°C° 0 mm 2 mps 746 mmHg 68%
    21:00 +10°C° 0 mm 2 mps 746 mmHg 72%
    22:00 +10°C° 0 mm 2 mps 746 mmHg 76%
    23:00 +9°C° 0 mm 2 mps 745 mmHg 80%

    26 April, Thursday

    Time Temperature Precipitation Wind Pressure Humidity
    00:00 +10°C° 0.1 mm 3 mps 745 mmHg 83%
    01:00 +10°C° 0.1 mm 3 mps 744 mmHg 85%
    02:00 +10°C° 0.1 mm 4 mps 744 mmHg 87%
    03:00 +11°C° 0 mm 4 mps 743 mmHg 87%
    04:00 +10°C° 0 mm 5 mps 743 mmHg 86%
    05:00 +12°C° 0 mm 5 mps 742 mmHg 85%
    06:00 +12°C° 0.1 mm 5 mps 742 mmHg 86%
    07:00 +13°C° 0.1 mm 4 mps 742 mmHg 86%
    08:00 +14°C° 0.1 mm 4 mps 742 mmHg 87%
    09:00 +16°C° 0.1 mm 5 mps 743 mmHg 79%
    10:00 +17°C° 0.1 mm 5 mps 743 mmHg 71%
    11:00 +20°C° 0.1 mm 6 mps 743 mmHg 63%
    12:00 +21°C° 0.2 mm 6 mps 743 mmHg 59%
    13:00 +21°C° 0.2 mm 7 mps 743 mmHg 55%
    14:00 +22°C° 0.2 mm 7 mps 743 mmHg 51%
    15:00 +21°C° 0 mm 6 mps 744 mmHg 51%
    16:00 +21°C° 0 mm 5 mps 744 mmHg 51%
    17:00 +20°C° 0 mm 4 mps 744 mmHg 52%
    18:00 +18°C° 0 mm 4 mps 745 mmHg 57%
    19:00 +16°C° 0 mm 3 mps 745 mmHg 63%
    20:00 +14°C° 0 mm 2 mps 746 mmHg 68%
    21:00 +13°C° 0 mm 2 mps 746 mmHg 70%
    22:00 +12°C° 0 mm 2 mps 747 mmHg 72%
    23:00 +10°C° 0 mm 2 mps 747 mmHg 74%

    27 April, Friday

    Time Temperature Precipitation Wind Pressure Humidity
    00:00 +10°C° 0 mm 2 mps 747 mmHg 75%
    01:00 +9°C° 0 mm 2 mps 747 mmHg 76%
    02:00 +10°C° 0 mm 1 mps 748 mmHg 77%
    03:00 +9°C° 0.1 mm 2 mps 748 mmHg 77%
    04:00 +9°C° 0.1 mm 2 mps 748 mmHg 78%
    05:00 +9°C° 0.1 mm 2 mps 748 mmHg 78%
    06:00 +9°C° 0.2 mm 2 mps 748 mmHg 79%
    07:00 +10°C° 0.2 mm 3 mps 748 mmHg 79%
    08:00 +10°C° 0.2 mm 3 mps 747 mmHg 80%
    09:00 +11°C° 0 mm 3 mps 747 mmHg 77%
    10:00 +12°C° 0 mm 3 mps 747 mmHg 75%
    11:00 +13°C° 0 mm 4 mps 747 mmHg 73%
    12:00 +13°C° 0 mm 4 mps 747 mmHg 73%
    13:00 +13°C° 0 mm 4 mps 747 mmHg 72%
    14:00 +14°C° 0 mm 4 mps 747 mmHg 71%
    15:00 +13°C° 0.1 mm 5 mps 747 mmHg 73%
    16:00 +12°C° 0.1 mm 5 mps 747 mmHg 74%
    17:00 +12°C° 0.1 mm 5 mps 747 mmHg 76%
    18:00 +10°C° 0.1 mm 5 mps 747 mmHg 78%
    19:00 +10°C° 0.1 mm 4 mps 747 mmHg 81%
    20:00 +8°C° 0.1 mm 4 mps 747 mmHg 84%
    21:00 +8°C° 0 mm 4 mps 747 mmHg 86%
    22:00 +8°C° 0 mm 3 mps 747 mmHg 87%
    23:00 +8°C° 0 mm 3 mps 747 mmHg 89%
    Show more